Oconto, WI

8:52 PM CST on February 22, 2017 (GMT -0600)
Oconto Municipal

Weather History for KOCQ - October, 2013

Change the Weather History Date:

Sunday, October 27, 2013

  Actual Average Record
Temperature  
Mean Temperature 41 °F -  
Max Temperature 52 °F 54 °F 58 °F (2014)
Min Temperature 30 °F 34 °F 30 °F (2013)
Degree Days  
Heating Degree Days 24    
Moisture  
Dew Point 29 °F    
Average Humidity 68    
Maximum Humidity 91    
Minimum Humidity 39    
Precipitation  
Precipitation 0.00 in - - ()
Sea Level Pressure  
Sea Level Pressure 29.93 in    
Wind  
Wind Speed 4 mph (WSW)    
Max Wind Speed 16 mph    
Max Gust Speed 22 mph    
Visibility 10 miles    
Events      
Averages and records for this station are not official NWS values.
T = Trace of Precipitation, MM = Missing Value Source: NWS Daily Summary

Daily Weather History Graph

Daily Weather History Graph

Search for Another Location

Airport or City:

Trip Planner

Search our weather history database for the weather conditions in past years. The results will help you decide how hot, cold, wet, or windy it might be!

Date:

Astronomy

Oct. 27, 2013 Rise Set
Actual Time 7:23 AM CDT 5:46 PM CDT
Civil Twilight 6:53 AM CDT 6:17 PM CDT
Nautical Twilight 6:18 AM CDT 6:51 PM CDT
Astronomical Twilight 5:44 AM CDT 7:25 PM CDT
Moon 12:03 AM CDT (10/27) 2:11 PM CDT (10/27)
Length of Visible Light 11h 23m
Length of Day
10h 23m
Last Quarter, 43% of the Moon is Illuminated
Oct 27
Last Quarter
Nov 3
New
Nov 9
First Quarter
Nov 17
Full
Nov 25
Last Quarter

Hourly Weather History & Observations

Time (CDT) Temp. Windchill Dew Point Humidity Pressure Visibility Wind Dir Wind Speed Gust Speed Precip Events Conditions
12:15 AM 35.6 °F 31.7 °F 28.0 °F 74% 30.00 in 10.0 mi WSW 4.6 mph - N/A   Overcast
12:35 AM 35.2 °F 31.2 °F 27.9 °F 74% 30.00 in 10.0 mi WSW 4.6 mph - N/A   Overcast
12:55 AM 34.9 °F - 28.0 °F 76% 30.00 in 10.0 mi Calm Calm - N/A   Overcast
1:15 AM 34.3 °F - 27.9 °F 77% 29.99 in 10.0 mi Calm Calm - N/A   Overcast
1:35 AM 33.6 °F - 28.2 °F 81% 29.99 in 10.0 mi Calm Calm - N/A   Overcast
1:55 AM 32.2 °F - 27.9 °F 84% 29.99 in 10.0 mi Calm Calm - N/A   Mostly Cloudy
2:15 AM 31.5 °F - 27.5 °F 85% 29.99 in 10.0 mi Calm Calm - N/A   Overcast
2:35 AM 31.5 °F - 27.5 °F 85% 29.98 in 10.0 mi Calm Calm - N/A   Overcast
2:55 AM 31.3 °F - 27.5 °F 86% 29.98 in 10.0 mi Calm Calm - N/A   Overcast
3:15 AM 31.5 °F - 29.1 °F 91% 29.97 in 10.0 mi Calm Calm - N/A   Overcast
3:35 AM 32.0 °F - 28.9 °F 88% 29.97 in 10.0 mi Calm Calm - N/A   Overcast
3:55 AM 33.8 °F 30.8 °F 28.4 °F 81% 29.95 in 10.0 mi SW 3.5 mph - N/A   Overcast
4:15 AM 34.3 °F - 28.4 °F 79% 29.95 in 10.0 mi Calm Calm - N/A   Overcast
4:35 AM 34.0 °F - 29.1 °F 82% 29.95 in 10.0 mi Calm Calm - N/A   Overcast
4:55 AM 33.8 °F - 29.7 °F 85% 29.95 in 10.0 mi Calm Calm - N/A   Overcast
5:15 AM 34.7 °F - 29.7 °F 82% 29.94 in 10.0 mi Calm Calm - N/A   Overcast
5:35 AM 34.7 °F 30.6 °F 29.1 °F 80% 29.94 in 10.0 mi SW 4.6 mph - N/A   Mostly Cloudy
5:55 AM 33.3 °F - 29.1 °F 85% 29.95 in 10.0 mi Calm Calm - N/A   Scattered Clouds
6:15 AM 30.4 °F - 27.5 °F 89% 29.95 in 10.0 mi Calm Calm - N/A   Scattered Clouds
6:35 AM 30.0 °F 26.5 °F 27.5 °F 90% 29.95 in 10.0 mi SW 3.5 mph - N/A   Mostly Cloudy
6:55 AM 32.0 °F 28.7 °F 28.9 °F 88% 29.94 in 10.0 mi WSW 3.5 mph - N/A   Mostly Cloudy
7:15 AM 30.0 °F 26.5 °F 27.7 °F 91% 29.94 in 10.0 mi SW 3.5 mph - N/A   Scattered Clouds
7:35 AM 30.6 °F 27.1 °F 28.0 °F 90% 29.94 in 10.0 mi WSW 3.5 mph - N/A   Scattered Clouds
7:55 AM 32.5 °F 28.1 °F 29.8 °F 90% 29.94 in 10.0 mi SW 4.6 mph - N/A   Scattered Clouds
8:15 AM 34.0 °F 29.8 °F 30.6 °F 87% 29.94 in 10.0 mi SW 4.6 mph - N/A   Scattered Clouds
8:35 AM 35.6 °F 31.7 °F 30.7 °F 82% 29.93 in 10.0 mi SW 4.6 mph - N/A   Mostly Cloudy
8:55 AM 37.0 °F 32.4 °F 30.7 °F 78% 29.94 in 10.0 mi WSW 5.8 mph - N/A   Mostly Cloudy
9:15 AM 37.8 °F 35.3 °F 30.7 °F 76% 29.94 in 10.0 mi SW 3.5 mph - N/A   Overcast
9:35 AM 39.2 °F 35.0 °F 30.7 °F 72% 29.93 in 10.0 mi SSW 5.8 mph - N/A   Mostly Cloudy
9:55 AM 39.7 °F 34.3 °F 30.6 °F 70% 29.94 in 10.0 mi SW 8.1 mph - N/A   Overcast
10:15 AM 41.0 °F 36.4 °F 30.2 °F 65% 29.93 in 10.0 mi SW 6.9 mph - N/A   Mostly Cloudy
10:35 AM 43.2 °F 39.0 °F 30.0 °F 60% 29.92 in 10.0 mi SW 6.9 mph - N/A   Scattered Clouds
10:55 AM 44.6 °F 38.4 °F 29.7 °F 56% 29.92 in 10.0 mi WSW 12.7 mph - N/A   Clear
11:15 AM 45.0 °F 39.7 °F 29.7 °F 55% 29.91 in 10.0 mi SSW 10.4 mph 18.4 mph N/A   Clear
11:35 AM 46.2 °F 41.2 °F 29.8 °F 53% 29.91 in 10.0 mi WSW 10.4 mph 17.3 mph N/A   Clear
11:55 AM 46.4 °F 40.1 °F 30.0 °F 53% 29.90 in 10.0 mi West 15.0 mph - N/A   Clear
12:15 PM 46.6 °F - 30.0 °F 53% 29.89 in 10.0 mi WSW 16.1 mph 20.7 mph N/A   Clear
12:35 PM 47.1 °F - 29.5 °F 50% 29.87 in 10.0 mi West 13.8 mph 21.9 mph N/A   Clear
12:55 PM 48.0 °F - 29.5 °F 49% 29.87 in 10.0 mi WSW 12.7 mph 17.3 mph N/A   Clear
1:15 PM 46.4 °F 41.9 °F 28.9 °F 51% 29.86 in 10.0 mi WSW 9.2 mph 17.3 mph N/A   Clear
1:35 PM 48.9 °F - 29.8 °F 48% 29.84 in 10.0 mi WSW 9.2 mph - N/A   Clear
1:55 PM 48.2 °F - 28.8 °F 47% 29.84 in 10.0 mi WSW 11.5 mph 17.3 mph N/A   Clear
2:15 PM 48.9 °F - 28.8 °F 46% 29.83 in 10.0 mi SW 10.4 mph 19.6 mph N/A   Clear
2:35 PM 48.7 °F - 28.6 °F 46% 29.83 in 10.0 mi WSW 8.1 mph - N/A   Clear
2:55 PM 50.2 °F - 29.7 °F 45% 29.82 in 10.0 mi SW 9.2 mph - N/A   Clear
3:15 PM 50.4 °F - 29.5 °F 45% 29.81 in 10.0 mi WSW 9.2 mph 16.1 mph N/A   Clear
3:35 PM 51.1 °F - 28.9 °F 43% 29.82 in 10.0 mi WSW 9.2 mph 16.1 mph N/A   Scattered Clouds
3:55 PM 51.1 °F - 28.6 °F 42% 29.82 in 10.0 mi WSW 8.1 mph - N/A   Clear
4:15 PM 51.3 °F - 28.0 °F 41% 29.83 in 10.0 mi WSW 11.5 mph 18.4 mph N/A   Clear
4:35 PM 52.0 °F - 27.7 °F 39% 29.82 in 10.0 mi SW 10.4 mph - N/A   Clear
4:55 PM 51.8 °F - 27.7 °F 39% 29.82 in 10.0 mi WSW 9.2 mph - N/A   Clear
5:15 PM 50.9 °F - 27.9 °F 41% 29.84 in 10.0 mi WSW 9.2 mph - N/A   Clear
5:35 PM 49.1 °F - 27.5 °F 43% 29.84 in 10.0 mi WSW 5.8 mph - N/A   Clear
5:55 PM 45.9 °F - 27.5 °F 49% 29.86 in 10.0 mi Calm Calm - N/A   Clear
6:15 PM 42.6 °F - 27.7 °F 56% 29.86 in 10.0 mi Calm Calm - N/A   Clear
6:35 PM 40.1 °F - 29.5 °F 66% 29.87 in 10.0 mi Calm Calm - N/A   Clear
6:55 PM 39.6 °F - 29.5 °F 67% 29.88 in 10.0 mi Calm Calm - N/A   Clear
7:15 PM 36.9 °F - 29.3 °F 74% 29.89 in 10.0 mi Calm Calm - N/A   Clear
7:35 PM 35.6 °F - 28.4 °F 75% 29.90 in 10.0 mi Calm Calm - N/A   Scattered Clouds
7:55 PM 35.1 °F - 28.6 °F 77% 29.91 in 10.0 mi Calm Calm - N/A   Overcast
8:15 PM 35.8 °F - 30.2 °F 80% 29.92 in 10.0 mi Calm Calm - N/A   Overcast
8:35 PM 35.8 °F 31.9 °F 31.6 °F 85% 29.94 in 10.0 mi NNW 4.6 mph - N/A   Overcast
8:55 PM 38.5 °F 36.1 °F 29.8 °F 71% 29.95 in 10.0 mi WNW 3.5 mph - N/A   Scattered Clouds
9:15 PM 42.8 °F 38.6 °F 30.4 °F 62% 29.97 in 10.0 mi NNW 6.9 mph - N/A   Clear
9:35 PM 43.3 °F 39.2 °F 31.5 °F 63% 29.99 in 10.0 mi North 6.9 mph - N/A   Clear
9:55 PM 43.0 °F 37.7 °F 31.6 °F 64% 30.01 in 10.0 mi North 9.2 mph 16.1 mph N/A   Clear
10:15 PM 42.4 °F 37.5 °F 31.8 °F 66% 30.02 in 10.0 mi North 8.1 mph - N/A   Mostly Cloudy
10:35 PM 42.8 °F 38.0 °F 31.1 °F 63% 30.03 in 10.0 mi North 8.1 mph 16.1 mph N/A   Overcast
10:55 PM 42.8 °F 38.0 °F 31.5 °F 64% 30.04 in 10.0 mi North 8.1 mph 17.3 mph N/A   Overcast
11:15 PM 42.4 °F 38.1 °F 31.5 °F 65% 30.05 in 10.0 mi North 6.9 mph - N/A   Overcast
11:35 PM 42.3 °F 36.8 °F 31.6 °F 66% 30.06 in 10.0 mi North 9.2 mph 17.3 mph N/A   Overcast
11:55 PM 42.1 °F 36.1 °F 32.0 °F 67% 30.07 in 10.0 mi North 10.4 mph 20.7 mph N/A   Overcast